Location: Firdgum
(53.2488°N, 5.5615°E)
Time: 20:17:05
(UTC+00:00)

Cosmos 2084 Rocket - Pass Details

Date: 08 December 2019
Orbit: 571 x 610 km, 62.8° (Epoch: 25 January)

Event Time Altitude Azimuth Distance (km) Brightness Sun altitude
Exits shadow 05:11:28 32° 219° (SW) 1,061 4.5 -20.6°
Drops below altitude 10° 05:14:52 10° 172° (S) 1,954 6.3 -20.1°
Sets 05:17:16 0° 162° (SSE) 2,849 7.4 -19.8°
